Probability
0 0 0 0 0 0 0 0 0 0 0 0 0 0 0 0 0 0 0 0 0 0 0 0 0 0 0 0 0 0 0 0 0 0 0 0 0 0 0 0 0 0 0 0
0 0 0 0 0 0 0 0 0 0 0 0 0 0 0 0 0 0 0 0 0 0 0 0 0 0 0 0 0 0 0 0 0 0 0 0 0 0 0 0 0 0 0 0
0 0 0 0 0 0 0 0 0 0 0 0 0 0 0 0 0 0 0 0 0 0 0 0 0 0 0 0 0 0 0 0 0 0 0 0 0 0 0 0 0 0 0 0
0 0 0 0 0 0 0 0 0 0 0 0 0 0 0 0 0 0 0 0 0 0 0 0 0 0 0 0 0 0 0 0 0 0 0 0 0 0 0 0 0 0 0 0
0 0 0 0 0 0 0 0 0 0 0 0 0 0 0 0 0 0 0 0 0 0 0 0 0 0 0 0 0 0 0 0 0 0 0 0 0 0 0 0 0 0 0 0
0 0 0 0 0 0 0 0 0 0 0 0 0 0 0 0 0 0 0 0 0 0 0 0 0 0 0 0 0 0 0 0 0 0 0 0 0 0 0 0 0 0 0 0
0 0 0 0 0 0 0 0 0 0 0 0 0 0 0 0 0 0 0 0 0 0 0 0 0 0 0 0 0 0 0 0 0 0 0 0 0 0 0 0 0 0 0 0
0 0 0 0 0 0 0 0 0 0 0 0 0 0 0 0 0 0 0 0 0 0 0 0 0 0 0 0 0 0 0 0 0 0 0 0 0 0 0 0 0 0 0 0
0 0 0 0 0 0 0 0 0 0 0 0 0 0 0 0 0 0 0 0 0 0 0 0 0 0 0 0 0 0 0 0 0 0 0 0 0 0 0 0 0 0 0 0
0 0 0 0 0 0 0 0 0 0 0 0 0 0 0 0 0 0 0 0 0 0 0 0 0 0 0 0 0 0 0 0 0 0 0 0 0 0 0 0 0 0 0 0
0 0 0 0 0 0 0 0 0 0 0 0 0 0 0 0 0 0 0 0 0 0 0 0 0 0 0 0 0 0 0 0 0 0 0 0 0 0 0 0 0 0 0 0
0 0 0 0 0 0 0 0 0 0 0 0 0 0 0 0 0 0 0 0 0 0 0 0 0 0 0 0 0 0 0 0 0 0 0 0 0 0 0 0 0 0 0 0
0 0 0 0 0 0 0 0 0 0 0 0 0 0 0 0 0 0 0 0 0 0 0 0 0 0 0 0 0 0 0 0 0 0 0 0 0 0 0 0 0 0 0 0
0 0 0 0 0 0 0 0 0 0 0 0 0 0 0 0 0 0 0 0 0 0 0 0 0 0 0 0 0 0 0 0 0 0 0 0 0 0 0 0 0 0 0 0
0 0 0 0 0 0 0 0 0 0 0 0 0 0 0 0 0 0 0 0 0 0 0 0 0 0 0 0 0 0 0 0 0 0 0 0 0 0 0 0 0 0 0 0
0 0 0 0 0 0 0 0 0 0 0 0 0 0 0 0 0 0 0 0 0 0 0 0 0 0 0 0 0 0 0 0 0 0 0 0 0 0 0 0 0 0 0 0
0 0 0 0 0 0 0 0 0 0 0 0 0 0 0 0 0 0 0 0 0 0 0 0 0 0 0 0 0 0 0 0 0 0 0 0 0 0 0 0 0 0 0 0
0 0 0 0 0 0 0 0 0 0 0 0 0 0 0 0 0 0 0 0 0 0 0 0 0 0 0 0 0 0 0 0 0 0 0 0 0 0 0 0 0 0 0 0
0 0 0 0 0 0 0 0 0 0 0 0 0 0 0 0 0 0 0 0 0 0 0 0 0 0 0 0 0 0 0 0 0 0 0 0 0 0 0 0 0 0 0 0
0 0 0 0 0 0 0 0 0 0 0 0 0 0 0 0 0 0 0 0 0 0 0 0 0 0 0 0 0 0 0 0 0 0 0 0 0 0 0 0 0 0 0 0
0 0 0 0 0 0 0 0 0 0 0 0 0 0 0 0 0 0 0 0 0 0 0 0 0 0 0 0 0 0 0 0 0 0 0 0 0 0 0 0 0 0 0 0
0 0 0 0 0 0 0 0 0 0 0 0 0 0 0 0 0 0 0 0 0 0 0 0 0 0 0 0 0 0 0 0 0 0 0 0 0 0 0 0 0 0 0 0
0 0 0 0 0 0 0 0 0 0 0 0 0 0 0 0 0 0 0 0 0 0 0 0 0 0 0 0 0 0 0 0 0 0 0 0 0 0 0 0 0 0 0 0
0 0 0 0 0 0 0 0 0 0 0 0 0 0 0 0 0 0 0 0 0 0 0 0 0 0 0 0 0 0 0 0 0 0 0 0 0 0 0 0 0 0 0 0
0 0 0 0 0 0 0 0 0 0 0 0 0 0 0 0 0 0 0 0 0 0 0 0 0 0 0 0 0 0 0 0 0 0 0 0 0 0 0 0 0 0 0 0
0 0 0 0 0 0 0 0 0 0 0 0 0 0 0 0 0 0 0 0 0 0 0 0 0 0 0 0 0 0 0 0 0 0 0 0 0 0 0 0 0 0 0 0
0 0 0 0 0 0 0 0 0 0 0 0 0 0 0 0 0 0 0 0 0 0 0 0 0 0 0 0 0 0 0 0 0 0 0 0 0 0 0 0 0 0 0 0
Height
5660 5659 5657 5656 5655 5653 5652 5651 5650 5649 5646 5645 5644 5642 5640 5639 5637 5636 5636 5635 5636 5636 5636 5637 5638 5639 5640 5641 5642 5644 5645 5646 5647 5648 5649 5649 5650 5651 5651 5652 5652 5651 5651 5650
5659 5657 5656 5655 5653 5652 5650 5649 5648 5646 5645 5644 5642 5640 5639 5637 5636 5635 5634 5634 5634 5634 5635 5636 5636 5637 5638 5639 5640 5642 5643 5644 5644 5645 5645 5646 5646 5646 5646 5646 5646 5645 5644 5643
5657 5655 5654 5653 5652 5650 5649 5647 5646 5644 5644 5642 5640 5639 5637 5636 5635 5634 5633 5633 5633 5633 5633 5634 5634 5635 5636 5637 5638 5639 5640 5641 5641 5642 5642 5642 5642 5642 5641 5640 5639 5638 5637 5636
5654 5653 5651 5653 5649 5648 5646 5645 5644 5642 5641 5640 5638 5637 5635 5634 5632 5632 5631 5631 5631 5631 5631 5632 5632 5633 5633 5634 5635 5636 5637 5637 5637 5638 5638 5638 5637 5637 5636 5635 5633 5632 5631 5629
5650 5648 5648 5649 5646 5644 5643 5642 5641 5639 5638 5637 5636 5634 5633 5631 5630 5629 5629 5629 5629 5628 5629 5629 5629 5630 5630 5631 5632 5633 5633 5633 5634 5634 5633 5633 5633 5632 5631 5629 5628 5626 5625 5623
5645 5643 5643 5646 5643 5640 5640 5639 5638 5636 5634 5633 5632 5631 5631 5629 5627 5626 5625 5625 5625 5625 5625 5626 5626 5626 5627 5628 5628 5629 5629 5629 5629 5629 5629 5628 5627 5626 5625 5624 5622 5620 5618 5616
5640 5637 5638 5640 5638 5636 5636 5636 5634 5631 5630 5629 5628 5627 5627 5625 5624 5622 5622 5621 5621 5621 5622 5622 5622 5623 5623 5624 5625 5625 5625 5625 5624 5624 5623 5623 5622 5621 5620 5618 5616 5614 5612 5609
5633 5632 5635 5633 5632 5631 5631 5629 5628 5627 5625 5624 5623 5622 5621 5621 5620 5619 5618 5617 5617 5617 5617 5618 5618 5618 5619 5620 5620 5620 5620 5619 5619 5619 5618 5617 5616 5615 5613 5612 5610 5607 5604 5602
5627 5629 5627 5626 5625 5625 5624 5623 5622 5621 5620 5620 5618 5617 5617 5616 5615 5614 5614 5613 5613 5612 5613 5613 5613 5613 5614 5614 5614 5614 5614 5614 5613 5613 5612 5611 5610 5608 5607 5605 5603 5600 5597 5595
5619 5620 5618 5617 5617 5617 5616 5616 5615 5615 5614 5613 5613 5612 5611 5611 5610 5609 5609 5608 5607 5607 5607 5607 5607 5608 5608 5608 5608 5608 5608 5607 5607 5606 5605 5604 5602 5600 5599 5597 5595 5592 5590 5586
5610 5611 5609 5609 5608 5608 5608 5608 5608 5607 5607 5606 5606 5605 5605 5604 5604 5603 5602 5602 5601 5601 5601 5601 5601 5601 5601 5601 5601 5601 5601 5600 5600 5599 5597 5596 5594 5592 5591 5589 5586 5584 5581 5578
5601 5601 5599 5600 5599 5599 5599 5599 5599 5599 5599 5598 5598 5597 5597 5597 5596 5596 5595 5595 5594 5594 5594 5594 5594 5594 5594 5594 5594 5593 5593 5592 5591 5590 5589 5588 5586 5584 5582 5580 5577 5575 5572 5569
5590 5590 5589 5590 5590 5589 5589 5589 5589 5589 5590 5590 5589 5589 5589 5588 5588 5588 5588 5587 5587 5586 5586 5586 5586 5586 5586 5586 5586 5585 5584 5584 5583 5582 5580 5579 5577 5575 5573 5571 5568 5565 5562 5559
5579 5579 5579 5580 5580 5580 5579 5579 5579 5579 5580 5580 5580 5580 5580 5579 5579 5579 5579 5579 5578 5578 5578 5578 5578 5578 5578 5577 5577 5576 5575 5575 5573 5572 5571 5569 5568 5566 5564 5561 5559 5556 5552 5549
5568 5567 5568 5569 5569 5569 5569 5568 5568 5569 5569 5570 5570 5570 5570 5570 5569 5569 5569 5569 5568 5568 5568 5568 5568 5568 5568 5568 5567 5567 5566 5565 5563 5562 5561 5559 5557 5555 5553 5551 5549 5546 5542 5539
5556 5556 5556 5557 5558 5558 5558 5558 5558 5558 5558 5559 5559 5559 5559 5559 5558 5558 5558 5558 5558 5558 5558 5558 5558 5558 5558 5558 5557 5557 5556 5554 5553 5552 5550 5548 5547 5545 5543 5540 5538 5535 5532 5528
5543 5544 5544 5545 5546 5546 5546 5546 5547 5547 5547 5547 5547 5547 5547 5547 5547 5547 5547 5546 5546 5546 5546 5546 5546 5547 5547 5546 5546 5545 5544 5543 5542 5541 5539 5537 5536 5534 5531 5529 5526 5523 5520 5516
5531 5532 5533 5533 5534 5534 5534 5534 5535 5535 5535 5535 5535 5535 5535 5535 5535 5535 5534 5534 5534 5534 5534 5534 5534 5535 5535 5535 5534 5533 5532 5531 5530 5529 5528 5526 5524 5522 5520 5517 5514 5511 5508 5504
5518 5520 5521 5521 5522 5522 5523 5523 5523 5523 5523 5523 5523 5522 5522 5522 5522 5522 5521 5521 5521 5521 5522 5521 5522 5522 5522 5522 5522 5521 5520 5519 5518 5517 5515 5514 5512 5510 5508 5505 5502 5499 5496 5492
5506 5507 5508 5508 5509 5510 5511 5511 5511 5511 5510 5510 5510 5509 5509 5509 5508 5508 5508 5508 5508 5508 5508 5508 5509 5509 5509 5509 5509 5508 5507 5507 5506 5504 5503 5501 5499 5497 5495 5492 5490 5486 5483 5479
5493 5494 5495 5496 5497 5497 5498 5498 5498 5498 5498 5497 5497 5496 5495 5495 5494 5494 5494 5495 5495 5494 5495 5495 5496 5496 5496 5496 5496 5495 5495 5494 5493 5491 5490 5489 5487 5485 5482 5480 5477 5473 5470 5466
5480 5481 5482 5483 5484 5485 5485 5485 5485 5485 5485 5484 5483 5482 5482 5481 5481 5480 5480 5481 5481 5481 5481 5482 5482 5482 5482 5482 5482 5482 5482 5481 5480 5479 5477 5476 5474 5472 5469 5467 5464 5460 5457 5453
5468 5469 5470 5471 5472 5472 5472 5472 5472 5472 5471 5470 5470 5469 5468 5468 5467 5467 5467 5467 5467 5467 5468 5468 5468 5468 5469 5469 5469 5469 5469 5468 5467 5466 5464 5463 5461 5459 5456 5454 5450 5447 5444 5440
5455 5456 5457 5458 5459 5459 5460 5459 5459 5459 5458 5457 5457 5456 5455 5455 5455 5454 5454 5454 5453 5454 5454 5454 5455 5455 5456 5456 5456 5456 5456 5455 5454 5453 5452 5450 5448 5446 5443 5440 5437 5434 5431 5428
5443 5444 5445 5446 5446 5446 5446 5446 5446 5446 5445 5445 5444 5443 5443 5442 5442 5441 5441 5441 5441 5441 5441 5442 5442 5442 5443 5443 5444 5444 5443 5442 5442 5440 5439 5437 5436 5433 5431 5428 5425 5422 5419 5415
5431 5432 5433 5433 5434 5434 5433 5433 5433 5433 5433 5432 5432 5431 5430 5429 5429 5429 5428 5428 5428 5429 5429 5429 5430 5430 5431 5431 5431 5431 5431 5430 5429 5428 5427 5425 5423 5421 5419 5416 5413 5410 5407 5404
5419 5420 5421 5421 5421 5421 5421 5421 5421 5421 5421 5420 5420 5419 5418 5418 5417 5417 5417 5417 5417 5417 5417 5418 5418 5418 5418 5419 5419 5419 5418 5418 5417 5416 5415 5413 5411 5409 5407 5404 5401 5398 5395 5392
Wind_Speed
10 10 9 9 10 10 11 11 11 10 10 10 9 9 9 9 7 6 6 6 6 6 6 6 7 8 9 9 8 9 9 9 10 12 13 15 17 18 19 19 20 21 22 23
11 11 11 11 11 11 11 11 11 10 10 10 10 10 9 9 7 6 5 6 6 6 6 6 7 8 9 10 10 11 11 10 10 12 13 14 15 17 18 20 21 22 23 24
14 13 13 12 12 12 12 11 12 11 10 10 10 11 10 9 8 8 6 5 6 6 7 7 7 8 9 10 11 11 12 12 13 14 15 15 16 17 18 19 21 23 24 25
16 16 15 14 14 14 14 13 13 12 11 12 12 12 12 11 10 9 9 9 8 8 9 9 10 9 9 10 11 13 14 14 14 15 15 15 16 17 18 20 22 23 24 25
19 18 17 15 15 16 16 15 14 14 13 13 14 14 13 13 12 11 10 10 10 10 10 11 11 12 12 12 13 14 14 14 15 15 15 16 17 18 20 21 22 23 24 26
22 21 19 17 17 18 18 16 16 16 15 14 15 14 14 13 13 13 13 13 13 13 12 12 12 13 13 13 14 14 14 14 14 15 16 17 19 20 21 22 24 24 25 27
24 24 22 20 20 20 20 18 18 17 17 16 16 15 14 14 14 14 14 14 15 15 15 14 14 14 14 14 14 14 15 15 16 16 17 18 20 21 22 24 25 25 26 27
26 26 24 23 22 22 21 20 19 18 17 16 16 16 16 16 15 15 14 15 15 15 15 15 15 15 15 15 16 16 16 17 18 19 20 21 22 22 23 24 25 26 27 28
26 25 26 26 25 24 24 22 21 20 19 18 18 17 17 17 17 16 16 16 16 17 17 17 17 17 17 18 18 18 19 19 20 21 22 23 24 25 26 26 27 28 29 30
28 26 28 28 28 27 27 25 24 23 22 21 20 21 20 20 19 19 19 19 19 19 19 19 19 19 20 20 20 20 21 21 22 23 24 25 26 27 28 29 30 30 31 32
30 28 30 29 30 29 29 27 26 25 25 23 23 23 23 23 22 22 21 21 21 21 21 21 22 22 23 23 23 23 24 24 24 25 27 27 28 28 29 30 31 32 32 33
31 30 31 30 30 31 31 30 28 27 27 26 25 25 25 25 25 24 23 23 23 23 24 24 24 24 25 25 26 26 26 27 28 28 29 29 29 30 31 31 32 32 33 34
33 33 34 32 31 32 32 32 31 30 30 28 27 27 27 27 27 27 26 26 26 26 26 27 27 26 26 27 27 27 28 29 30 30 30 31 31 32 32 32 33 34 34 35
34 35 34 33 33 32 32 32 32 31 32 31 30 29 29 29 29 29 29 29 28 28 28 28 28 28 29 29 29 29 29 30 31 31 32 33 33 34 34 34 34 35 36 37
35 36 35 34 33 33 32 32 33 33 33 33 33 32 32 31 31 31 32 31 31 31 30 30 30 31 31 31 31 31 32 32 33 34 34 35 35 35 35 35 36 37 38 38
36 36 36 35 35 34 34 33 34 34 35 35 35 35 35 34 34 34 34 34 34 33 33 33 33 33 33 33 33 34 34 35 35 35 36 36 36 36 37 37 38 39 39 39
36 36 36 36 35 35 35 35 35 35 35 36 36 36 37 37 36 36 36 37 36 36 36 36 36 36 36 36 36 36 37 37 38 37 37 37 38 38 38 38 39 39 40 40
37 36 36 36 36 36 36 36 36 36 36 37 38 38 38 38 38 38 38 38 38 37 37 37 37 37 37 38 38 38 38 38 38 38 39 39 39 39 39 39 39 40 41 41
36 36 36 36 36 36 37 37 37 37 37 38 39 39 39 40 40 39 39 39 38 38 38 39 39 38 39 39 39 39 39 39 39 39 40 40 40 40 40 41 41 41 42 42
36 36 36 36 36 36 36 37 37 37 38 39 39 40 40 40 41 41 41 40 39 39 40 40 40 40 40 40 40 40 40 40 41 41 41 40 40 41 41 41 42 42 43 44
37 36 36 36 36 36 36 37 37 37 38 39 40 40 40 41 41 42 42 41 40 41 41 41 41 41 41 41 41 41 41 41 41 41 41 41 41 41 42 42 42 43 44 44
37 36 36 37 37 37 37 37 38 38 39 40 40 40 41 41 41 41 41 41 41 42 42 42 41 41 41 41 41 41 41 41 41 41 41 42 42 42 42 42 43 43 44 43
37 37 37 38 38 38 38 38 38 38 39 40 40 40 40 40 40 40 40 41 41 42 42 42 41 41 40 40 40 40 40 40 40 41 41 41 41 41 41 42 42 43 42 42
38 37 38 38 39 39 39 39 39 39 39 39 39 39 39 39 39 39 39 39 40 40 40 40 40 40 40 40 40 40 40 40 40 40 40 40 40 40 40 41 41 41 40 41
37 37 37 37 38 38 39 38 38 38 38 38 38 38 38 38 38 38 38 38 38 38 38 39 39 39 39 40 39 39 39 38 38 39 39 39 39 39 40 40 40 39 39 40
36 36 36 37 37 38 38 37 36 37 37 37 37 37 37 37 37 37 37 37 37 37 37 37 37 37 38 38 38 38 38 38 38 38 38 38 38 39 39 39 38 38 39 39
36 36 36 37 37 37 37 36 35 36 36 36 36 36 35 35 36 35 35 35 36 36 35 35 35 36 37 37 37 37 37 37 37 37 37 38 37 38 38 38 37 37 38 38
Wind_Direction
320 316 312 311 308 308 308 309 312 315 315 313 313 314 312 308 304 290 271 262 254 252 256 259 250 243 242 243 243 241 245 251 251 252 257 263 266 267 269 271 276 281 284 284
310 309 306 306 307 309 308 309 312 313 313 314 317 317 313 311 307 297 279 266 257 256 259 258 258 253 253 250 250 251 255 261 263 264 266 273 274 275 278 280 283 286 288 289
300 300 301 304 305 304 305 306 309 313 315 311 311 314 312 308 299 289 286 276 258 258 259 258 259 260 255 253 255 257 262 269 270 270 273 276 279 283 287 289 289 289 290 291
295 294 297 302 300 300 301 301 302 305 305 306 307 308 307 304 297 286 277 273 267 265 264 265 265 263 262 263 262 264 268 272 274 276 276 281 288 289 290 291 293 293 294 295
291 290 292 296 298 297 297 296 297 296 297 300 302 301 300 296 293 287 277 271 268 269 269 269 265 264 265 269 270 270 271 275 276 277 279 284 289 291 292 294 295 296 296 298
287 287 287 289 290 292 295 295 293 292 292 293 297 297 295 294 292 286 279 273 269 269 270 271 270 267 268 272 274 275 273 273 278 281 281 284 288 291 294 296 297 297 297 298
285 285 286 287 287 288 292 293 291 289 288 288 288 289 291 290 291 288 281 275 271 269 268 269 269 269 269 270 271 273 275 275 277 282 286 289 291 293 295 297 299 299 299 299
281 281 284 284 284 285 287 288 287 287 286 286 284 282 283 285 287 286 281 276 271 269 269 269 268 268 270 272 273 274 276 278 280 283 287 291 293 294 296 298 299 300 301 301
280 280 279 279 280 281 282 284 283 282 282 282 281 280 281 283 285 284 281 277 273 269 269 270 270 269 270 272 274 275 277 279 282 285 288 290 292 293 294 297 299 300 301 302
280 278 277 278 277 278 279 280 280 279 279 278 278 276 277 280 281 282 280 277 273 269 267 266 268 269 271 273 275 277 278 279 282 285 288 291 292 293 294 296 298 300 301 301
277 277 276 276 276 276 276 277 278 277 277 276 276 275 274 275 278 279 279 275 272 269 267 266 267 269 270 272 273 276 278 279 282 285 287 290 292 293 294 296 297 299 301 302
275 273 274 274 273 273 274 274 274 275 275 276 275 275 274 273 273 275 277 276 274 272 270 269 270 270 271 271 273 275 277 278 281 283 285 288 290 292 293 295 297 298 300 302
271 271 273 275 275 274 274 273 271 272 271 273 274 274 274 273 272 273 275 275 274 274 273 271 270 271 272 274 275 277 278 279 280 282 283 286 288 290 292 294 296 297 299 301
269 270 271 273 274 275 275 273 271 270 270 271 272 273 274 273 272 272 274 274 274 275 274 273 272 272 273 274 276 277 279 280 281 282 284 286 288 289 291 292 294 296 298 301
267 268 270 270 272 273 274 273 271 270 270 271 271 272 273 273 272 271 272 273 273 274 273 272 272 273 274 276 277 278 280 281 282 284 285 286 288 289 290 292 293 295 297 298
265 267 268 269 269 271 272 273 272 271 270 270 270 270 270 271 272 271 272 272 272 272 271 271 272 273 274 275 277 278 280 281 283 284 286 286 287 288 289 291 293 295 296 297
265 265 266 268 268 270 271 272 271 271 271 270 269 269 269 269 271 272 272 272 271 271 270 270 271 272 273 274 276 278 280 281 283 284 285 286 287 288 289 291 293 295 297 298
266 266 266 268 268 269 270 271 271 271 272 272 270 270 270 270 271 272 272 272 272 270 269 269 270 272 273 274 276 278 279 280 281 282 284 285 287 288 289 291 293 295 297 298
265 265 266 268 269 269 270 271 272 272 273 273 273 271 270 271 271 271 271 271 271 270 269 269 270 271 272 274 275 277 278 280 281 282 283 284 286 287 289 291 293 295 296 297
263 264 264 266 268 269 271 271 273 274 274 274 273 272 271 271 270 270 270 270 270 269 269 269 270 271 272 273 274 276 277 279 280 281 283 284 285 287 289 291 293 295 297 298
264 264 264 265 267 269 270 271 272 273 274 273 274 274 273 272 271 270 270 269 269 269 269 269 270 271 272 273 274 275 276 278 279 281 282 284 285 287 289 291 293 295 298 299
264 264 264 265 267 268 270 271 272 273 274 274 274 275 274 273 273 272 270 269 269 269 269 269 269 270 271 272 274 275 276 277 278 280 282 284 285 287 289 291 293 295 297 298
265 265 265 266 267 268 270 271 272 273 274 275 275 275 275 274 273 273 272 271 270 269 268 268 268 268 269 271 272 274 276 278 280 281 283 285 286 288 290 292 294 295 297 298
266 266 267 267 268 269 271 272 272 272 273 274 274 275 275 275 274 274 273 272 271 271 269 268 267 267 268 270 272 273 276 278 280 282 284 286 288 289 291 293 295 296 296 297
265 266 267 268 269 270 272 273 273 272 273 273 274 275 276 276 275 274 273 272 271 271 270 269 268 268 269 270 272 274 276 278 280 282 284 286 288 290 292 293 295 296 296 297
266 266 266 267 268 270 272 273 273 272 272 273 274 275 276 276 276 275 274 272 272 271 271 270 269 269 270 271 272 274 276 277 279 281 283 285 288 290 292 293 295 296 297 297
267 267 267 267 268 270 271 272 273 272 272 273 275 276 276 276 275 275 274 273 272 272 272 271 270 270 270 271 272 274 275 277 279 281 283 285 287 289 291 293 294 296 296 297